Time,TemperatureF,DewpointF,PressureIn,WindDirection,WindDirectionDegrees,WindSpeedMPH,WindSpeedGustMPH,Humidity,HourlyPrecipIn,Conditions,Clouds,dailyrainin,SoftwareType,DateUTC
2013-02-24 00:12:00,36.1,35.0,29.82,East,89,7.0,17.0,95,0.00,,,0.00,weatherlink.com 1.10,2013-02-24 05:12:00,
2013-02-24 00:27:00,36.1,35.0,29.82,North,5,16.0,18.0,95,0.01,,,0.01,weatherlink.com 1.10,2013-02-24 05:27:00,
2013-02-24 00:42:00,36.3,35.0,29.82,NE,39,13.0,21.0,95,0.01,,,0.01,weatherlink.com 1.10,2013-02-24 05:42:00,
2013-02-24 00:57:00,36.4,35.0,29.80,ENE,61,11.0,18.0,95,0.01,,,0.01,weatherlink.com 1.10,2013-02-24 05:57:00,
2013-02-24 01:12:00,36.5,35.0,29.81,North,351,3.0,15.0,95,0.01,,,0.01,weatherlink.com 1.10,2013-02-24 06:12:00,
2013-02-24 01:27:00,36.7,35.0,29.80,ENE,70,8.0,19.0,95,0.00,,,0.01,weatherlink.com 1.10,2013-02-24 06:27:00,
2013-02-24 01:42:00,36.8,36.0,29.78,NNE,27,12.0,18.0,95,0.01,,,0.02,weatherlink.com 1.10,2013-02-24 06:42:00,
2013-02-24 01:57:00,36.9,36.0,29.77,North,5,9.0,19.0,95,0.01,,,0.02,weatherlink.com 1.10,2013-02-24 06:57:00,
2013-02-24 02:12:00,37.0,36.0,29.76,NE,53,8.0,19.0,95,0.01,,,0.02,weatherlink.com 1.10,2013-02-24 07:12:00,
2013-02-24 02:27:00,37.1,36.0,29.76,NE,49,7.0,17.0,95,0.01,,,0.02,weatherlink.com 1.10,2013-02-24 07:27:00,
2013-02-24 02:42:00,37.1,36.0,29.76,North,355,9.0,16.0,95,0.00,,,0.02,weatherlink.com 1.10,2013-02-24 07:42:00,
2013-02-24 02:57:00,37.1,36.0,29.75,NNW,347,9.0,16.0,95,0.00,,,0.02,weatherlink.com 1.10,2013-02-24 07:57:00,
2013-02-24 03:12:00,37.1,36.0,29.75,North,355,7.0,17.0,95,0.00,,,0.02,weatherlink.com 1.10,2013-02-24 08:12:00,
2013-02-24 03:27:00,37.2,36.0,29.74,NNW,327,4.0,14.0,95,0.00,,,0.02,weatherlink.com 1.10,2013-02-24 08:27:00,
2013-02-24 03:42:00,37.3,36.0,29.74,North,5,7.0,14.0,95,0.00,,,0.02,weatherlink.com 1.10,2013-02-24 08:42:00,
2013-02-24 03:57:00,37.2,36.0,29.73,NNE,25,9.0,15.0,95,0.00,,,0.02,weatherlink.com 1.10,2013-02-24 08:57:00,
2013-02-24 04:12:00,37.0,36.0,29.73,North,5,6.0,14.0,95,0.00,,,0.02,weatherlink.com 1.10,2013-02-24 09:12:00,
2013-02-24 04:28:00,36.4,35.0,29.72,NW,316,6.0,12.0,95,0.00,,,0.02,weatherlink.com 1.10,2013-02-24 09:28:00,
2013-02-24 04:43:00,36.5,35.0,29.73,North,355,8.0,13.0,95,0.00,,,0.02,weatherlink.com 1.10,2013-02-24 09:43:00,
2013-02-24 04:58:00,36.5,35.0,29.75,NW,324,9.0,16.0,95,0.00,,,0.02,weatherlink.com 1.10,2013-02-24 09:58:00,
2013-02-24 05:13:00,36.5,35.0,29.76,NNW,327,13.0,17.0,95,0.00,,,0.02,weatherlink.com 1.10,2013-02-24 10:13:00,
2013-02-24 05:28:00,36.5,35.0,29.76,NW,326,10.0,18.0,95,0.00,,,0.02,weatherlink.com 1.10,2013-02-24 10:28:00,
2013-02-24 05:43:00,36.4,35.0,29.75,North,360,14.0,15.0,95,0.00,,,0.02,weatherlink.com 1.10,2013-02-24 10:43:00,
2013-02-24 05:58:00,36.3,35.0,29.74,North,360,12.0,16.0,95,0.01,,,0.03,weatherlink.com 1.10,2013-02-24 10:58:00,
2013-02-24 06:13:00,36.2,35.0,29.74,NW,324,10.0,16.0,95,0.01,,,0.03,weatherlink.com 1.10,2013-02-24 11:13:00,
2013-02-24 06:28:00,36.1,35.0,29.73,North,355,13.0,20.0,95,0.01,,,0.03,weatherlink.com 1.10,2013-02-24 11:28:00,
2013-02-24 06:43:00,36.0,35.0,29.71,NNE,13,14.0,21.0,95,0.01,,,0.03,weatherlink.com 1.10,2013-02-24 11:43:00,
2013-02-24 06:58:00,36.1,35.0,29.71,NNW,329,8.0,19.0,95,0.00,,,0.03,weatherlink.com 1.10,2013-02-24 11:58:00,
2013-02-24 07:13:00,36.3,35.0,29.71,North,360,12.0,20.0,95,0.00,,,0.03,weatherlink.com 1.10,2013-02-24 12:13:00,
2013-02-24 07:28:00,36.4,35.0,29.70,NNW,344,7.0,20.0,95,0.00,,,0.03,weatherlink.com 1.10,2013-02-24 12:28:00,
2013-02-24 07:43:00,36.6,35.0,29.71,NNW,347,11.0,18.0,95,0.00,,,0.03,weatherlink.com 1.10,2013-02-24 12:43:00,
2013-02-24 07:58:00,36.7,35.0,29.71,North,355,8.0,21.0,95,0.00,,,0.03,weatherlink.com 1.10,2013-02-24 12:58:00,
2013-02-24 08:13:00,36.6,35.0,29.72,NW,315,6.0,19.0,95,0.00,,,0.03,weatherlink.com 1.10,2013-02-24 13:13:00,
2013-02-24 08:28:00,36.6,35.0,29.71,NNW,333,13.0,21.0,95,0.00,,,0.03,weatherlink.com 1.10,2013-02-24 13:28:00,
2013-02-24 08:43:00,37.1,36.0,29.71,NNW,338,11.0,18.0,95,0.00,,,0.03,weatherlink.com 1.10,2013-02-24 13:43:00,
2013-02-24 08:58:00,37.1,36.0,29.72,North,355,5.0,20.0,94,0.00,,,0.03,weatherlink.com 1.10,2013-02-24 13:58:00,
2013-02-24 09:13:00,37.6,36.0,29.71,NNW,339,11.0,17.0,95,0.00,,,0.03,weatherlink.com 1.10,2013-02-24 14:13:00,
2013-02-24 09:28:00,38.1,37.0,29.70,NNW,346,12.0,20.0,94,0.00,,,0.03,weatherlink.com 1.10,2013-02-24 14:28:00,
2013-02-24 09:43:00,38.3,37.0,29.70,North,350,12.0,19.0,94,0.00,,,0.03,weatherlink.com 1.10,2013-02-24 14:43:00,
2013-02-24 09:58:00,38.5,37.0,29.72,North,349,12.0,19.0,94,0.00,,,0.03,weatherlink.com 1.10,2013-02-24 14:58:00,
2013-02-24 10:13:00,38.6,37.0,29.72,WNW,302,15.0,19.0,93,0.00,,,0.03,weatherlink.com 1.10,2013-02-24 15:13:00,
2013-02-24 10:28:00,38.6,37.0,29.72,SW,224,10.0,21.0,93,0.00,,,0.03,weatherlink.com 1.10,2013-02-24 15:28:00,
2013-02-24 10:43:00,38.4,36.0,29.72,WNW,296,13.0,21.0,92,0.00,,,0.03,weatherlink.com 1.10,2013-02-24 15:43:00,
2013-02-24 10:58:00,39.9,38.0,29.70,North,5,8.0,18.0,94,0.00,,,0.03,weatherlink.com 1.10,2013-02-24 15:58:00,
2013-02-24 11:13:00,40.4,38.0,29.70,NNW,343,13.0,18.0,92,0.00,,,0.03,weatherlink.com 1.10,2013-02-24 16:13:00,
2013-02-24 11:28:00,40.2,38.0,29.71,NNW,331,8.0,18.0,91,0.00,,,0.03,weatherlink.com 1.10,2013-02-24 16:28:00,
2013-02-24 11:43:00,39.3,37.0,29.70,NW,311,9.0,20.0,90,0.00,,,0.03,weatherlink.com 1.10,2013-02-24 16:43:00,
2013-02-24 11:58:00,39.2,37.0,29.70,WSW,252,7.0,18.0,90,0.00,,,0.03,weatherlink.com 1.10,2013-02-24 16:58:00,
2013-02-24 12:13:00,38.8,36.0,29.70,North,350,17.0,21.0,90,0.00,,,0.03,weatherlink.com 1.10,2013-02-24 17:13:00,
2013-02-24 12:28:00,38.6,36.0,29.70,NW,320,18.0,21.0,91,0.00,,,0.03,weatherlink.com 1.10,2013-02-24 17:28:00,
2013-02-24 12:43:00,38.7,37.0,29.70,NW,312,10.0,20.0,92,0.01,,,0.04,weatherlink.com 1.10,2013-02-24 17:43:00,
2013-02-24 12:58:00,38.9,37.0,29.70,WNW,302,13.0,22.0,92,0.01,,,0.04,weatherlink.com 1.10,2013-02-24 17:58:00,
2013-02-24 13:13:00,39.1,37.0,29.70,WNW,299,11.0,20.0,92,0.01,,,0.04,weatherlink.com 1.10,2013-02-24 18:13:00,
2013-02-24 13:28:00,39.3,37.0,29.70,NNW,342,10.0,20.0,92,0.01,,,0.04,weatherlink.com 1.10,2013-02-24 18:28:00,
2013-02-24 13:43:00,39.5,37.0,29.70,North,360,9.0,22.0,91,0.00,,,0.04,weatherlink.com 1.10,2013-02-24 18:43:00,
2013-02-24 13:58:00,39.6,37.0,29.70,NNW,330,11.0,21.0,90,0.00,,,0.04,weatherlink.com 1.10,2013-02-24 18:58:00,
2013-02-24 14:13:00,39.7,37.0,29.71,NW,321,11.0,18.0,90,0.00,,,0.04,weatherlink.com 1.10,2013-02-24 19:13:00,
2013-02-24 14:28:00,39.7,37.0,29.71,NNW,340,8.0,17.0,90,0.00,,,0.04,weatherlink.com 1.10,2013-02-24 19:28:00,
2013-02-24 14:43:00,39.5,37.0,29.71,North,355,13.0,18.0,90,0.00,,,0.04,weatherlink.com 1.10,2013-02-24 19:43:00,
2013-02-24 14:58:00,39.0,36.0,29.72,NNW,345,15.0,22.0,90,0.00,,,0.04,weatherlink.com 1.10,2013-02-24 19:58:00,
2013-02-24 15:13:00,39.0,36.0,29.72,North,5,12.0,20.0,90,0.00,,,0.04,weatherlink.com 1.10,2013-02-24 20:13:00,
2013-02-24 15:28:00,38.8,36.0,29.74,NNW,331,12.0,20.0,89,0.00,,,0.04,weatherlink.com 1.10,2013-02-24 20:28:00,
2013-02-24 15:43:00,38.7,36.0,29.75,NNW,333,12.0,19.0,89,0.00,,,0.04,weatherlink.com 1.10,2013-02-24 20:43:00,
2013-02-24 15:58:00,38.6,35.0,29.75,NW,321,10.0,20.0,88,0.00,,,0.04,weatherlink.com 1.10,2013-02-24 20:58:00,
2013-02-24 16:13:00,38.6,35.0,29.74,NNW,345,12.0,20.0,88,0.00,,,0.04,weatherlink.com 1.10,2013-02-24 21:13:00,
2013-02-24 16:28:00,38.6,35.0,29.75,North,355,13.0,20.0,87,0.00,,,0.04,weatherlink.com 1.10,2013-02-24 21:28:00,
2013-02-24 16:43:00,38.2,35.0,29.75,NNW,333,12.0,21.0,88,0.00,,,0.04,weatherlink.com 1.10,2013-02-24 21:43:00,
2013-02-24 16:58:00,37.8,35.0,29.76,NNW,343,11.0,16.0,89,0.00,,,0.04,weatherlink.com 1.10,2013-02-24 21:58:00,
2013-02-24 17:13:00,37.4,35.0,29.77,North,355,7.0,15.0,89,0.00,,,0.04,weatherlink.com 1.10,2013-02-24 22:13:00,
2013-02-24 17:28:00,36.9,34.0,29.77,North,355,13.0,17.0,89,0.00,,,0.04,weatherlink.com 1.10,2013-02-24 22:28:00,
2013-02-24 17:44:00,36.8,34.0,29.79,NNW,337,8.0,18.0,89,0.00,,,0.04,weatherlink.com 1.10,2013-02-24 22:44:00,
2013-02-24 17:59:00,36.7,34.0,29.80,NNW,339,11.0,15.0,89,0.00,,,0.04,weatherlink.com 1.10,2013-02-24 22:59:00,
2013-02-24 18:14:00,36.7,34.0,29.82,NE,36,7.0,16.0,90,0.00,,,0.04,weatherlink.com 1.10,2013-02-24 23:14:00,
2013-02-24 18:29:00,36.6,34.0,29.83,NW,308,10.0,14.0,89,0.00,,,0.04,weatherlink.com 1.10,2013-02-24 23:29:00,
2013-02-24 18:44:00,36.6,34.0,29.84,NNW,331,9.0,14.0,89,0.00,,,0.04,weatherlink.com 1.10,2013-02-24 23:44:00,
2013-02-24 18:59:00,36.5,34.0,29.84,NNW,329,7.0,17.0,89,0.00,,,0.04,weatherlink.com 1.10,2013-02-24 23:59:00,
2013-02-24 19:14:00,36.5,34.0,29.84,WSW,250,3.0,14.0,90,0.00,,,0.04,weatherlink.com 1.10,2013-02-25 00:14:00,
2013-02-24 19:29:00,36.2,34.0,29.86,WNW,284,7.0,13.0,90,0.00,,,0.04,weatherlink.com 1.10,2013-02-25 00:29:00,
2013-02-24 19:44:00,36.0,34.0,29.87,NW,313,9.0,14.0,91,0.00,,,0.04,weatherlink.com 1.10,2013-02-25 00:44:00,
2013-02-24 19:59:00,36.0,34.0,29.87,WNW,290,12.0,15.0,91,0.00,,,0.04,weatherlink.com 1.10,2013-02-25 00:59:00,
2013-02-24 20:14:00,35.8,34.0,29.88,SW,229,8.0,13.0,92,0.00,,,0.04,weatherlink.com 1.10,2013-02-25 01:14:00,
2013-02-24 20:29:00,35.5,33.0,29.89,WNW,282,10.0,16.0,91,0.01,,,0.05,weatherlink.com 1.10,2013-02-25 01:29:00,
2013-02-24 20:44:00,35.2,33.0,29.89,NW,315,8.0,16.0,92,0.01,,,0.05,weatherlink.com 1.10,2013-02-25 01:44:00,
2013-02-24 20:59:00,34.8,33.0,29.90,NW,316,8.0,15.0,92,0.01,,,0.05,weatherlink.com 1.10,2013-02-25 01:59:00,
2013-02-24 21:14:00,34.4,32.0,29.90,West,269,13.0,17.0,92,0.02,,,0.06,weatherlink.com 1.10,2013-02-25 02:14:00,
2013-02-24 21:29:00,33.9,32.0,29.90,NW,304,11.0,19.0,93,0.01,,,0.06,weatherlink.com 1.10,2013-02-25 02:29:00,
2013-02-24 21:44:00,33.3,32.0,29.91,WSW,243,12.0,18.0,93,0.01,,,0.06,weatherlink.com 1.10,2013-02-25 02:44:00,
2013-02-24 22:00:00,33.0,31.0,29.91,NNW,347,8.0,16.0,93,0.01,,,0.06,weatherlink.com 1.10,2013-02-25 03:00:00,
2013-02-24 22:14:00,33.1,31.0,29.91,SW,221,11.0,14.0,93,0.01,,,0.07,weatherlink.com 1.10,2013-02-25 03:14:00,
2013-02-24 22:29:00,33.2,31.0,29.91,WNW,299,8.0,14.0,93,0.01,,,0.07,weatherlink.com 1.10,2013-02-25 03:29:00,
2013-02-24 22:44:00,33.2,31.0,29.91,SW,225,9.0,15.0,93,0.01,,,0.07,weatherlink.com 1.10,2013-02-25 03:44:00,
2013-02-24 22:59:00,33.1,31.0,29.92,West,281,8.0,13.0,93,0.01,,,0.07,weatherlink.com 1.10,2013-02-25 03:59:00,
2013-02-24 23:14:00,33.0,31.0,29.92,SSW,213,7.0,12.0,93,0.00,,,0.07,weatherlink.com 1.10,2013-02-25 04:14:00,
2013-02-24 23:29:00,32.9,31.0,29.93,SW,215,6.0,11.0,93,0.00,,,0.07,weatherlink.com 1.10,2013-02-25 04:29:00,
2013-02-24 23:44:00,33.0,31.0,29.93,NNW,344,8.0,14.0,93,0.00,,,0.07,weatherlink.com 1.10,2013-02-25 04:44:00,
2013-02-24 23:59:00,33.0,31.0,29.93,WSW,244,9.0,13.0,93,0.00,,,0.07,weatherlink.com 1.10,2013-02-25 04:59:00,